sat.trackr.live / text

‹ back to catalog

AL YAH 3

NORAD 43174 · 2018-012A

PAYLOAD ACTIVE UNKNOWN

§ Identity

Operator
Country
UAE
Launch date
2018-01-25
Launch site
FRGUI
Launch vehicle
Mass (kg)
RCS (m²)

Purposes: comms

External: N2YO · Heavens-Above · Gunter

§ Orbital elements

Epoch: 2026-09-19T20:17:54.674880Z

Period
1,436.09 min
Inclination
1.7892°
Eccentricity
0.0003513
Mean motion
1.00272041 rev/d
Perigee alt
35,771.7 km
Apogee alt
35,801.3 km
Semi-major
42,164.7 km
B*
0.0000e+0
RAAN
81.8228°
Arg perigee
94.1463°
Mean anomaly
107.1803°
Rev number
3,179

§ Raw data

AL YAH 31 43174U 18012A   26262.84577170 -.00000159  00000+0  00000+0 0  99922 43174   1.7892  81.8228 0003513  94.1463 107.1803  1.00272041 31793

JSON: /api/v1/satellites/43174 · /tle

For live sub-satellite position, see the globe view (requires WebGL).

§ Visibility from observer

Set your observer location to see the next 7 days of passes ≥ 10°. The values pass through the URL so the page stays shareable.

No JS? Fill the form by hand. The geolocation button needs JavaScript.